Time,TemperatureF,DewpointF,PressureIn,WindDirection,WindDirectionDegrees,WindSpeedMPH,WindSpeedGustMPH,Humidity,HourlyPrecipIn,Conditions,Clouds,dailyrainin,SoftwareType,DateUTC
2014-01-25 00:02:00,47.2,37.2,30.31,East,92,3.0,5.0,68,0.00,,,0.00,Wunderground v.1.15,2014-01-25 08:02:00,
2014-01-25 00:11:00,47.7,35.3,30.31,East,85,5.0,5.0,62,0.00,,,0.00,Wunderground v.1.15,2014-01-25 08:11:00,
2014-01-25 00:17:00,47.9,34.3,30.32,East,90,5.0,7.0,59,0.00,,,0.00,Wunderground v.1.15,2014-01-25 08:17:00,
2014-01-25 00:27:00,47.8,32.4,30.32,East,90,7.0,8.0,55,0.00,,,0.00,Wunderground v.1.15,2014-01-25 08:27:00,
2014-01-25 00:36:00,47.8,31.0,30.32,ESE,109,7.0,7.0,52,0.00,,,0.00,Wunderground v.1.15,2014-01-25 08:36:00,
2014-01-25 00:42:00,47.7,30.9,30.32,East,86,8.0,8.0,52,0.00,,,0.00,Wunderground v.1.15,2014-01-25 08:42:00,
2014-01-25 00:51:00,47.3,30.5,30.32,East,88,8.0,8.0,52,0.00,,,0.00,Wunderground v.1.15,2014-01-25 08:51:00,
2014-01-25 00:57:00,47.1,30.4,30.32,East,97,7.0,8.0,52,0.00,,,0.00,Wunderground v.1.15,2014-01-25 08:57:00,
2014-01-25 01:07:00,46.9,30.6,30.32,East,92,7.0,7.0,53,0.00,,,0.00,Wunderground v.1.15,2014-01-25 09:07:00,
2014-01-25 01:17:00,46.8,30.1,30.33,East,101,7.0,8.0,52,0.00,,,0.00,Wunderground v.1.15,2014-01-25 09:17:00,
2014-01-25 01:27:00,46.6,29.9,30.33,ESE,103,8.0,8.0,52,0.00,,,0.00,Wunderground v.1.15,2014-01-25 09:27:00,
2014-01-25 01:36:00,46.6,29.9,30.32,ENE,65,9.0,12.0,52,0.00,,,0.00,Wunderground v.1.15,2014-01-25 09:36:00,
2014-01-25 01:42:00,46.7,30.0,30.32,East,92,8.0,8.0,52,0.00,,,0.00,Wunderground v.1.15,2014-01-25 09:42:00,
2014-01-25 01:51:00,46.6,29.4,30.32,East,79,9.0,10.0,51,0.00,,,0.00,Wunderground v.1.15,2014-01-25 09:51:00,
2014-01-25 01:57:00,46.5,29.3,30.32,ENE,76,10.0,10.0,51,0.00,,,0.00,Wunderground v.1.15,2014-01-25 09:57:00,
2014-01-25 02:06:00,46.5,29.3,30.32,East,85,9.0,10.0,51,0.00,,,0.00,Wunderground v.1.15,2014-01-25 10:06:00,
2014-01-25 02:12:00,46.5,29.3,30.32,East,86,9.0,9.0,51,0.00,,,0.00,Wunderground v.1.15,2014-01-25 10:12:00,
2014-01-25 02:17:00,46.6,29.4,30.32,East,98,10.0,10.0,51,0.00,,,0.00,Wunderground v.1.15,2014-01-25 10:17:00,
2014-01-25 02:27:00,46.5,29.3,30.32,East,80,10.0,10.0,51,0.00,,,0.00,Wunderground v.1.15,2014-01-25 10:27:00,
2014-01-25 02:37:00,46.1,29.0,30.32,East,82,11.0,14.0,51,0.00,,,0.00,Wunderground v.1.15,2014-01-25 10:37:00,
2014-01-25 02:47:00,45.8,28.7,30.32,East,98,10.0,13.0,51,0.00,,,0.00,Wunderground v.1.15,2014-01-25 10:47:00,
2014-01-25 02:52:00,45.8,28.7,30.32,ESE,105,11.0,15.0,51,0.00,,,0.00,Wunderground v.1.15,2014-01-25 10:52:00,
2014-01-25 03:01:00,45.5,28.4,30.32,East,84,11.0,11.0,51,0.00,,,0.00,Wunderground v.1.15,2014-01-25 11:01:00,
2014-01-25 03:06:00,45.6,28.5,30.32,East,94,10.0,11.0,51,0.00,,,0.00,Wunderground v.1.15,2014-01-25 11:06:00,
2014-01-25 03:12:00,45.5,28.9,30.32,East,84,10.0,13.0,52,0.00,,,0.00,Wunderground v.1.15,2014-01-25 11:12:00,
2014-01-25 03:22:00,45.3,28.7,30.32,East,84,9.0,9.0,52,0.00,,,0.00,Wunderground v.1.15,2014-01-25 11:22:00,
2014-01-25 03:32:00,45.3,28.7,30.32,East,81,10.0,13.0,52,0.00,,,0.00,Wunderground v.1.15,2014-01-25 11:32:00,
2014-01-25 03:41:00,45.3,28.7,30.32,East,86,10.0,12.0,52,0.00,,,0.00,Wunderground v.1.15,2014-01-25 11:41:00,
2014-01-25 03:47:00,45.2,28.6,30.32,East,83,10.0,12.0,52,0.00,,,0.00,Wunderground v.1.15,2014-01-25 11:47:00,
2014-01-25 03:57:00,44.9,28.3,30.32,East,98,10.0,10.0,52,0.00,,,0.00,Wunderground v.1.15,2014-01-25 11:57:00,
2014-01-25 04:07:00,44.8,28.2,30.32,East,81,10.0,12.0,52,0.00,,,0.00,Wunderground v.1.15,2014-01-25 12:07:00,
2014-01-25 04:12:00,44.8,28.2,30.32,East,83,10.0,12.0,52,0.00,,,0.00,Wunderground v.1.15,2014-01-25 12:12:00,
2014-01-25 04:22:00,44.8,28.2,30.32,East,97,10.0,14.0,52,0.00,,,0.00,Wunderground v.1.15,2014-01-25 12:22:00,
2014-01-25 04:32:00,44.7,28.1,30.32,East,89,10.0,10.0,52,0.00,,,0.00,Wunderground v.1.15,2014-01-25 12:32:00,
2014-01-25 04:42:00,44.6,28.0,30.32,ESE,105,10.0,15.0,52,0.00,,,0.00,Wunderground v.1.15,2014-01-25 12:42:00,
2014-01-25 04:52:00,44.4,28.3,30.32,East,81,11.0,11.0,53,0.00,,,0.00,Wunderground v.1.15,2014-01-25 12:52:00,
2014-01-25 05:02:00,44.3,28.2,30.31,East,88,11.0,12.0,53,0.00,,,0.00,Wunderground v.1.15,2014-01-25 13:02:00,
2014-01-25 05:11:00,44.2,28.1,30.31,East,94,12.0,12.0,53,0.00,,,0.00,Wunderground v.1.15,2014-01-25 13:11:00,
2014-01-25 05:22:00,44.0,28.4,30.31,ESE,111,11.0,11.0,54,0.00,,,0.00,Wunderground v.1.15,2014-01-25 13:22:00,
2014-01-25 05:31:00,43.8,28.2,30.31,East,82,12.0,12.0,54,0.00,,,0.00,Wunderground v.1.15,2014-01-25 13:31:00,
2014-01-25 05:42:00,43.7,28.1,30.31,ENE,76,11.0,11.0,54,0.00,,,0.00,Wunderground v.1.15,2014-01-25 13:42:00,
2014-01-25 05:52:00,43.6,28.0,30.31,East,79,11.0,11.0,54,0.00,,,0.00,Wunderground v.1.15,2014-01-25 13:52:00,
2014-01-25 05:57:00,43.6,28.0,30.31,ESE,109,11.0,11.0,54,0.00,,,0.00,Wunderground v.1.15,2014-01-25 13:57:00,
2014-01-25 06:07:00,43.8,28.2,30.31,ESE,103,12.0,13.0,54,0.00,,,0.00,Wunderground v.1.15,2014-01-25 14:07:00,
2014-01-25 06:17:00,43.6,28.0,30.32,East,86,12.0,13.0,54,0.00,,,0.00,Wunderground v.1.15,2014-01-25 14:17:00,
2014-01-25 06:27:00,43.6,28.0,30.32,East,98,11.0,12.0,54,0.00,,,0.00,Wunderground v.1.15,2014-01-25 14:27:00,
2014-01-25 06:36:00,43.7,27.7,30.32,East,82,11.0,13.0,53,0.00,,,0.00,Wunderground v.1.15,2014-01-25 14:36:00,
2014-01-25 06:42:00,43.8,27.8,30.32,East,89,11.0,11.0,53,0.00,,,0.00,Wunderground v.1.15,2014-01-25 14:42:00,
2014-01-25 06:51:00,44.1,28.0,30.32,East,83,13.0,13.0,53,0.00,,,0.00,Wunderground v.1.15,2014-01-25 14:51:00,
2014-01-25 07:02:00,44.3,27.8,30.32,ENE,69,13.0,13.0,52,0.00,,,0.00,Wunderground v.1.15,2014-01-25 15:02:00,
2014-01-25 07:12:00,44.0,27.5,30.32,East,82,12.0,13.0,52,0.00,,,0.00,Wunderground v.1.15,2014-01-25 15:12:00,
2014-01-25 07:17:00,43.8,27.8,30.32,East,91,12.0,14.0,53,0.00,,,0.00,Wunderground v.1.15,2014-01-25 15:17:00,
2014-01-25 07:26:00,43.3,27.8,30.32,East,83,13.0,14.0,54,0.00,,,0.00,Wunderground v.1.15,2014-01-25 15:26:00,
2014-01-25 07:32:00,43.2,27.7,30.32,East,84,13.0,13.0,54,0.00,,,0.00,Wunderground v.1.15,2014-01-25 15:32:00,
2014-01-25 07:41:00,43.0,27.9,30.32,ENE,70,14.0,14.0,55,0.00,,,0.00,Wunderground v.1.15,2014-01-25 15:41:00,
2014-01-25 07:47:00,42.9,27.8,30.32,East,85,13.0,15.0,55,0.00,,,0.00,Wunderground v.1.15,2014-01-25 15:47:00,
2014-01-25 07:57:00,42.7,27.6,30.32,ENE,78,13.0,14.0,55,0.00,,,0.00,Wunderground v.1.15,2014-01-25 15:57:00,
2014-01-25 08:07:00,42.5,27.9,30.32,East,101,12.0,13.0,56,0.00,,,0.00,Wunderground v.1.15,2014-01-25 16:07:00,
2014-01-25 08:17:00,42.9,27.8,30.32,ESE,113,13.0,16.0,55,0.00,,,0.00,Wunderground v.1.15,2014-01-25 16:17:00,
2014-01-25 08:26:00,43.2,28.1,30.32,East,94,13.0,14.0,55,0.00,,,0.00,Wunderground v.1.15,2014-01-25 16:26:00,
2014-01-25 08:32:00,43.4,27.8,30.32,East,90,12.0,14.0,54,0.00,,,0.00,Wunderground v.1.15,2014-01-25 16:32:00,
2014-01-25 08:42:00,44.1,28.0,30.32,ENE,78,13.0,13.0,53,0.00,,,0.00,Wunderground v.1.15,2014-01-25 16:42:00,
2014-01-25 08:52:00,44.6,28.0,30.32,East,92,12.0,20.0,52,0.00,,,0.00,Wunderground v.1.15,2014-01-25 16:52:00,
2014-01-25 09:02:00,45.1,28.5,30.32,ENE,69,12.0,15.0,52,0.00,,,0.00,Wunderground v.1.15,2014-01-25 17:02:00,
2014-01-25 09:12:00,45.8,28.2,30.32,ESE,105,13.0,13.0,50,0.00,,,0.00,Wunderground v.1.15,2014-01-25 17:12:00,
2014-01-25 09:21:00,46.5,28.3,30.32,East,88,14.0,14.0,49,0.00,,,0.00,Wunderground v.1.15,2014-01-25 17:21:00,
2014-01-25 09:27:00,46.9,28.7,30.32,ESE,113,14.0,14.0,49,0.00,,,0.00,Wunderground v.1.15,2014-01-25 17:27:00,
2014-01-25 09:36:00,47.6,28.9,30.33,ENE,78,13.0,19.0,48,0.00,,,0.00,Wunderground v.1.15,2014-01-25 17:36:00,
2014-01-25 09:41:00,48.0,29.2,30.33,ESE,105,12.0,12.0,48,0.00,,,0.00,Wunderground v.1.15,2014-01-25 17:41:00,
2014-01-25 09:52:00,48.6,29.3,30.33,ESE,102,12.0,12.0,47,0.00,,,0.00,Wunderground v.1.15,2014-01-25 17:52:00,
2014-01-25 10:02:00,49.4,29.5,30.33,East,92,12.0,12.0,46,0.00,,,0.00,Wunderground v.1.15,2014-01-25 18:02:00,
2014-01-25 10:11:00,50.1,29.6,30.33,ENE,76,12.0,19.0,45,0.00,,,0.00,Wunderground v.1.15,2014-01-25 18:11:00,
2014-01-25 10:17:00,50.4,29.8,30.33,East,82,13.0,19.0,45,0.00,,,0.00,Wunderground v.1.15,2014-01-25 18:17:00,
2014-01-25 10:26:00,51.0,29.8,30.33,East,99,11.0,12.0,44,0.00,,,0.00,Wunderground v.1.15,2014-01-25 18:26:00,
2014-01-25 10:37:00,51.8,30.6,30.33,East,82,10.0,13.0,44,0.00,,,0.00,Wunderground v.1.15,2014-01-25 18:37:00,
2014-01-25 10:47:00,52.4,30.5,30.33,ENE,66,10.0,10.0,43,0.00,,,0.00,Wunderground v.1.15,2014-01-25 18:47:00,
2014-01-25 10:57:00,53.0,30.5,30.33,East,91,9.0,10.0,42,0.00,,,0.00,Wunderground v.1.15,2014-01-25 18:57:00,
2014-01-25 11:07:00,53.9,30.7,30.33,East,90,8.0,8.0,41,0.00,,,0.00,Wunderground v.1.15,2014-01-25 19:07:00,
2014-01-25 11:12:00,54.3,31.1,30.33,ESE,119,7.0,11.0,41,0.00,,,0.00,Wunderground v.1.15,2014-01-25 19:12:00,
2014-01-25 11:21:00,54.9,31.0,30.33,East,98,7.0,8.0,40,0.00,,,0.00,Wunderground v.1.15,2014-01-25 19:21:00,
2014-01-25 11:32:00,55.7,31.7,30.33,East,83,6.0,7.0,40,0.00,,,0.00,Wunderground v.1.15,2014-01-25 19:32:00,
2014-01-25 11:41:00,56.2,31.5,30.33,ESE,103,8.0,8.0,39,0.00,,,0.00,Wunderground v.1.15,2014-01-25 19:41:00,
2014-01-25 11:52:00,57.0,31.6,30.32,East,98,7.0,8.0,38,0.00,,,0.00,Wunderground v.1.15,2014-01-25 19:52:00,
2014-01-25 12:01:00,57.7,31.6,30.32,ESE,121,7.0,7.0,37,0.00,,,0.00,Wunderground v.1.15,2014-01-25 20:01:00,
2014-01-25 12:07:00,57.9,31.8,30.32,East,95,7.0,7.0,37,0.00,,,0.00,Wunderground v.1.15,2014-01-25 20:07:00,
2014-01-25 12:17:00,58.7,31.8,30.31,East,86,6.0,8.0,36,0.00,,,0.00,Wunderground v.1.15,2014-01-25 20:17:00,
2014-01-25 12:26:00,59.0,31.4,30.31,ESE,105,6.0,9.0,35,0.00,,,0.00,Wunderground v.1.15,2014-01-25 20:26:00,
2014-01-25 12:37:00,59.4,31.7,30.31,ENE,75,6.0,6.0,35,0.00,,,0.00,Wunderground v.1.15,2014-01-25 20:37:00,
2014-01-25 12:47:00,59.8,32.1,30.31,East,93,4.0,5.0,35,0.00,,,0.00,Wunderground v.1.15,2014-01-25 20:47:00,
2014-01-25 12:56:00,60.2,31.7,30.30,East,92,5.0,9.0,34,0.00,,,0.00,Wunderground v.1.15,2014-01-25 20:56:00,
2014-01-25 13:02:00,60.4,32.6,30.30,East,82,4.0,4.0,35,0.00,,,0.00,Wunderground v.1.15,2014-01-25 21:02:00,
2014-01-25 13:11:00,60.9,33.0,30.30,ENE,65,2.0,3.0,35,0.00,,,0.00,Wunderground v.1.15,2014-01-25 21:11:00,
2014-01-25 13:17:00,61.3,32.7,30.30,ENE,76,2.0,3.0,34,0.00,,,0.00,Wunderground v.1.15,2014-01-25 21:17:00,
2014-01-25 13:22:00,61.6,32.9,30.29,ENE,75,3.0,4.0,34,0.00,,,0.00,Wunderground v.1.15,2014-01-25 21:22:00,
2014-01-25 13:32:00,60.5,41.8,30.29,NE,44,1.0,2.0,50,0.00,,,0.00,Wunderground v.1.15,2014-01-25 21:32:00,
2014-01-25 13:41:00,57.0,38.5,30.29,NNW,332,3.0,3.0,50,0.00,,,0.00,Wunderground v.1.15,2014-01-25 21:41:00,
2014-01-25 13:52:00,56.7,38.3,30.29,NNW,332,2.0,2.0,50,0.00,,,0.00,Wunderground v.1.15,2014-01-25 21:52:00,
2014-01-25 14:01:00,57.5,41.4,30.28,NNW,332,1.0,1.0,55,0.00,,,0.00,Wunderground v.1.15,2014-01-25 22:01:00,
2014-01-25 14:11:00,58.2,42.6,30.28,NNW,332,1.0,2.0,56,0.00,,,0.00,Wunderground v.1.15,2014-01-25 22:11:00,
2014-01-25 14:17:00,57.8,42.2,30.28,NNW,332,1.0,2.0,56,0.00,,,0.00,Wunderground v.1.15,2014-01-25 22:17:00,
2014-01-25 14:26:00,59.0,41.4,30.28,NW,325,0.0,1.0,52,0.00,,,0.00,Wunderground v.1.15,2014-01-25 22:26:00,
2014-01-25 14:37:00,59.5,43.8,30.28,NW,325,1.0,1.0,56,0.00,,,0.00,Wunderground v.1.15,2014-01-25 22:37:00,
2014-01-25 14:46:00,60.7,43.0,30.27,NW,325,0.0,1.0,52,0.00,,,0.00,Wunderground v.1.15,2014-01-25 22:46:00,
2014-01-25 14:52:00,61.0,43.2,30.27,NW,325,0.0,0.0,52,0.00,,,0.00,Wunderground v.1.15,2014-01-25 22:52:00,
2014-01-25 15:02:00,62.4,38.4,30.27,NE,34,0.0,3.0,41,0.00,,,0.00,Wunderground v.1.15,2014-01-25 23:02:00,
2014-01-25 15:12:00,63.6,36.1,30.27,ENE,73,1.0,1.0,36,0.00,,,0.00,Wunderground v.1.15,2014-01-25 23:12:00,
2014-01-25 15:22:00,64.3,36.0,30.27,East,81,1.0,1.0,35,0.00,,,0.00,Wunderground v.1.15,2014-01-25 23:22:00,
2014-01-25 15:27:00,64.6,35.6,30.27,East,86,1.0,2.0,34,0.00,,,0.00,Wunderground v.1.15,2014-01-25 23:27:00,
2014-01-25 15:37:00,64.3,34.6,30.27,East,85,1.0,2.0,33,0.00,,,0.00,Wunderground v.1.15,2014-01-25 23:37:00,
2014-01-25 15:46:00,63.6,33.9,30.27,East,94,3.0,4.0,33,0.00,,,0.00,Wunderground v.1.15,2014-01-25 23:46:00,
2014-01-25 15:52:00,63.4,33.8,30.26,East,96,4.0,6.0,33,0.00,,,0.00,Wunderground v.1.15,2014-01-25 23:52:00,
2014-01-25 16:02:00,62.9,33.3,30.26,ESE,110,5.0,7.0,33,0.00,,,0.00,Wunderground v.1.15,2014-01-26 00:02:00,
2014-01-25 16:11:00,62.7,33.9,30.26,East,101,2.0,2.0,34,0.00,,,0.00,Wunderground v.1.15,2014-01-26 00:11:00,
2014-01-25 16:17:00,62.6,33.8,30.26,ESE,105,1.0,2.0,34,0.00,,,0.00,Wunderground v.1.15,2014-01-26 00:17:00,
2014-01-25 16:27:00,62.3,35.0,30.26,ESE,103,1.0,6.0,36,0.00,,,0.00,Wunderground v.1.15,2014-01-26 00:27:00,
2014-01-25 16:36:00,62.4,34.4,30.26,ESE,104,0.0,0.0,35,0.00,,,0.00,Wunderground v.1.15,2014-01-26 00:36:00,
2014-01-25 16:42:00,62.2,33.5,30.26,ESE,103,1.0,1.0,34,0.00,,,0.00,Wunderground v.1.15,2014-01-26 00:42:00,
2014-01-25 16:52:00,61.2,33.3,30.26,ESE,104,1.0,1.0,35,0.00,,,0.00,Wunderground v.1.15,2014-01-26 00:52:00,
2014-01-25 16:57:00,60.7,33.6,30.26,East,101,1.0,2.0,36,0.00,,,0.00,Wunderground v.1.15,2014-01-26 00:57:00,
2014-01-25 17:06:00,59.7,34.0,30.25,East,90,2.0,2.0,38,0.00,,,0.00,Wunderground v.1.15,2014-01-26 01:06:00,
2014-01-25 17:12:00,59.2,33.6,30.25,East,88,2.0,5.0,38,0.00,,,0.00,Wunderground v.1.15,2014-01-26 01:12:00,
2014-01-25 17:22:00,58.2,33.3,30.25,East,90,3.0,5.0,39,0.00,,,0.00,Wunderground v.1.15,2014-01-26 01:22:00,
2014-01-25 17:31:00,57.4,33.9,30.25,East,84,5.0,5.0,41,0.00,,,0.00,Wunderground v.1.15,2014-01-26 01:31:00,
2014-01-25 17:37:00,57.1,33.6,30.25,ENE,71,6.0,6.0,41,0.00,,,0.00,Wunderground v.1.15,2014-01-26 01:37:00,
2014-01-25 17:42:00,56.8,33.9,30.24,East,94,5.0,7.0,42,0.00,,,0.00,Wunderground v.1.15,2014-01-26 01:42:00,
2014-01-25 17:47:00,56.6,33.8,30.24,East,81,5.0,7.0,42,0.00,,,0.00,Wunderground v.1.15,2014-01-26 01:47:00,
2014-01-25 17:57:00,56.0,33.8,30.24,East,84,2.0,4.0,43,0.00,,,0.00,Wunderground v.1.15,2014-01-26 01:57:00,
2014-01-25 18:06:00,55.5,33.9,30.24,East,86,2.0,5.0,44,0.00,,,0.00,Wunderground v.1.15,2014-01-26 02:06:00,
2014-01-25 18:12:00,55.3,33.7,30.24,East,88,1.0,1.0,44,0.00,,,0.00,Wunderground v.1.15,2014-01-26 02:12:00,
2014-01-25 18:17:00,55.0,33.5,30.24,East,88,1.0,1.0,44,0.00,,,0.00,Wunderground v.1.15,2014-01-26 02:17:00,
2014-01-25 18:27:00,54.6,33.7,30.24,East,90,2.0,2.0,45,0.00,,,0.00,Wunderground v.1.15,2014-01-26 02:27:00,
2014-01-25 18:36:00,54.2,33.9,30.24,East,92,4.0,6.0,46,0.00,,,0.00,Wunderground v.1.15,2014-01-26 02:36:00,
2014-01-25 18:42:00,54.1,33.8,30.24,East,98,5.0,5.0,46,0.00,,,0.00,Wunderground v.1.15,2014-01-26 02:42:00,
2014-01-25 18:52:00,53.6,33.8,30.24,East,96,4.0,5.0,47,0.00,,,0.00,Wunderground v.1.15,2014-01-26 02:52:00,
2014-01-25 19:01:00,53.3,33.6,30.23,ESE,102,6.0,9.0,47,0.00,,,0.00,Wunderground v.1.15,2014-01-26 03:01:00,
2014-01-25 19:11:00,53.2,34.0,30.23,East,99,7.0,7.0,48,0.00,,,0.00,Wunderground v.1.15,2014-01-26 03:11:00,
2014-01-25 19:22:00,52.7,34.1,30.23,East,90,6.0,6.0,49,0.00,,,0.00,Wunderground v.1.15,2014-01-26 03:22:00,
2014-01-25 19:32:00,52.4,33.8,30.23,East,87,6.0,6.0,49,0.00,,,0.00,Wunderground v.1.15,2014-01-26 03:32:00,
2014-01-25 19:41:00,52.2,33.6,30.23,ENE,76,5.0,5.0,49,0.00,,,0.00,Wunderground v.1.15,2014-01-26 03:41:00,
2014-01-25 19:47:00,52.1,34.0,30.23,East,93,4.0,5.0,50,0.00,,,0.00,Wunderground v.1.15,2014-01-26 03:47:00,
2014-01-25 19:56:00,51.7,33.6,30.22,East,89,6.0,8.0,50,0.00,,,0.00,Wunderground v.1.15,2014-01-26 03:56:00,
2014-01-25 20:07:00,51.6,33.6,30.22,East,81,8.0,8.0,50,0.00,,,0.00,Wunderground v.1.15,2014-01-26 04:07:00,
2014-01-25 20:17:00,51.6,33.0,30.22,East,88,9.0,11.0,49,0.00,,,0.00,Wunderground v.1.15,2014-01-26 04:17:00,
2014-01-25 20:26:00,51.4,33.4,30.22,East,98,8.0,12.0,50,0.00,,,0.00,Wunderground v.1.15,2014-01-26 04:26:00,
2014-01-25 20:37:00,51.0,33.0,30.22,East,91,9.0,13.0,50,0.00,,,0.00,Wunderground v.1.15,2014-01-26 04:37:00,
2014-01-25 20:42:00,50.8,32.8,30.21,East,98,9.0,9.0,50,0.00,,,0.00,Wunderground v.1.15,2014-01-26 04:42:00,
2014-01-25 20:52:00,50.5,33.0,30.21,East,84,11.0,12.0,51,0.00,,,0.00,Wunderground v.1.15,2014-01-26 04:52:00,
2014-01-25 21:01:00,50.3,32.8,30.21,ENE,78,11.0,11.0,51,0.00,,,0.00,Wunderground v.1.15,2014-01-26 05:01:00,
2014-01-25 21:12:00,50.0,33.1,30.21,ESE,104,10.0,10.0,52,0.00,,,0.00,Wunderground v.1.15,2014-01-26 05:12:00,
2014-01-25 21:17:00,49.9,33.0,30.21,East,84,9.0,10.0,52,0.00,,,0.00,Wunderground v.1.15,2014-01-26 05:17:00,
2014-01-25 21:26:00,49.6,32.7,30.22,East,91,8.0,11.0,52,0.00,,,0.00,Wunderground v.1.15,2014-01-26 05:26:00,
2014-01-25 21:31:00,49.5,33.1,30.22,East,82,6.0,6.0,53,0.00,,,0.00,Wunderground v.1.15,2014-01-26 05:31:00,
2014-01-25 21:37:00,49.3,32.9,30.22,East,96,3.0,6.0,53,0.00,,,0.00,Wunderground v.1.15,2014-01-26 05:37:00,
2014-01-25 21:42:00,49.2,32.8,30.22,East,86,3.0,4.0,53,0.00,,,0.00,Wunderground v.1.15,2014-01-26 05:42:00,
2014-01-25 21:51:00,49.0,32.6,30.22,East,84,2.0,2.0,53,0.00,,,0.00,Wunderground v.1.15,2014-01-26 05:51:00,
2014-01-25 22:02:00,48.9,32.5,30.22,East,92,1.0,1.0,53,0.00,,,0.00,Wunderground v.1.15,2014-01-26 06:02:00,
2014-01-25 22:12:00,48.7,32.8,30.22,East,96,1.0,6.0,54,0.00,,,0.00,Wunderground v.1.15,2014-01-26 06:12:00,
2014-01-25 22:22:00,48.8,32.9,30.22,East,94,6.0,6.0,54,0.00,,,0.00,Wunderground v.1.15,2014-01-26 06:22:00,
2014-01-25 22:31:00,48.7,32.8,30.22,ESE,102,4.0,5.0,54,0.00,,,0.00,Wunderground v.1.15,2014-01-26 06:31:00,
2014-01-25 22:37:00,48.7,32.8,30.22,ENE,59,4.0,5.0,54,0.00,,,0.00,Wunderground v.1.15,2014-01-26 06:37:00,
2014-01-25 22:46:00,48.5,32.6,30.21,East,82,1.0,2.0,54,0.00,,,0.00,Wunderground v.1.15,2014-01-26 06:46:00,
2014-01-25 22:57:00,48.3,32.4,30.21,ESE,107,2.0,6.0,54,0.00,,,0.00,Wunderground v.1.15,2014-01-26 06:57:00,
2014-01-25 23:07:00,48.1,32.2,30.22,ESE,106,1.0,1.0,54,0.00,,,0.00,Wunderground v.1.15,2014-01-26 07:07:00,
2014-01-25 23:12:00,48.0,32.1,30.22,ESE,107,0.0,1.0,54,0.00,,,0.00,Wunderground v.1.15,2014-01-26 07:12:00,
2014-01-25 23:21:00,48.2,31.9,30.22,ESE,105,0.0,0.0,53,0.00,,,0.00,Wunderground v.1.15,2014-01-26 07:21:00,
2014-01-25 23:31:00,48.0,32.1,30.22,ESE,105,0.0,1.0,54,0.00,,,0.00,Wunderground v.1.15,2014-01-26 07:31:00,
2014-01-25 23:37:00,47.8,31.9,30.22,ESE,104,0.0,2.0,54,0.00,,,0.00,Wunderground v.1.15,2014-01-26 07:37:00,
2014-01-25 23:46:00,48.1,32.2,30.22,ENE,65,2.0,2.0,54,0.00,,,0.00,Wunderground v.1.15,2014-01-26 07:46:00,
2014-01-25 23:57:00,48.0,31.7,30.22,ENE,72,0.0,0.0,53,0.00,,,0.00,Wunderground v.1.15,2014-01-26 07:57:00,